Find Starlink 35067

NORAD ID: 65527 Int'l Des: 2025-200 Owner: SPXS Country: US Constellation: starlink operational
LEOCIRCULARRETROGRADESSO

現在のビュー

3D地球を読み込み中...

About Starlink 35067

Starlink 35067 (NORAD 65527) is a starlink constellation satellite (v2 mini) launched Sep 6, 2025 by SPXS of US. It operates in LEO, CIRCULAR, RETROGRADE, SSO orbit with a mass of 575.00 kg.

次回通過

Passes for default location (London). Set your location on the main map for personalized predictions.

高度履歴

Loading altitude history...

軌道要素

1 65527U 25200H 26263.45636190 .00014680 00000-0 45578-3 0 9998
2 65527 97.2829 329.8248 0002693 94.4553 265.6997 15.33469448 58622
Epoch: Sep 20, 2026 • Age: 18 hours

現在のステータス

高度 467.4 km
遠地点 / 近地点 N/A
速度 7.63 km/s
衛星直下点 10.73°N, 78.14°E
打ち上げ日 Sep 6, 2025
運用期間 1 year
タイプ internet

技術仕様

分類 Payload
質量 575.00 kg
乾燥質量 530.00 kg
長さ 0.30 m
スパン 29.00 m
形状 ? Box + pan
製造者 SPXS
バスタイプ Starlink V2MO
フェーズステータス In Orbit
所有者/国 SPXS/US

Most Searched